TimeGMT,TemperatureF,Dew PointF,Humidity,Sea Level PressureIn,VisibilityMPH,Wind Direction,Wind SpeedMPH,Gust SpeedMPH,PrecipitationIn,Events,Conditions,WindDirDegrees,DateUTC
1:20 AM,39.2,37.4,93,29.62,4.3,SW,3.5,-,N/A,,Unknown,220,2012-11-11 01:20:00
1:50 AM,37.4,35.6,93,29.62,5.0,West,3.5,-,N/A,,Unknown,280,2012-11-11 01:50:00
2:20 AM,37.4,35.6,93,29.62,3.7,Variable,2.3,-,N/A,,Partly Cloudy,0,2012-11-11 02:20:00
2:50 AM,36,35,97,29.66,4,West,2.3,,,,Mist,270,2012-11-11 02:50:00
2:50 AM,37.4,35.6,93,29.62,3.7,Variable,2.3,-,N/A,,Partly Cloudy,0,2012-11-11 02:50:00
3:20 AM,37.4,35.6,93,29.65,3.1,Calm,Calm,-,N/A,,Unknown,0,2012-11-11 03:20:00
3:50 AM,35.6,33.8,93,29.68,3.1,Calm,Calm,-,N/A,,Unknown,0,2012-11-11 03:50:00
4:20 AM,35.6,35.6,100,29.68,3.1,Variable,2.3,-,N/A,,Unknown,0,2012-11-11 04:20:00
4:50 AM,35.6,35.6,100,29.71,3.7,Variable,2.3,-,N/A,,Unknown,0,2012-11-11 04:50:00
5:20 AM,35.6,35.6,100,29.74,3.7,West,4.6,-,N/A,,Unknown,270,2012-11-11 05:20:00
5:50 AM,33.8,33.8,100,29.74,3.7,West,4.6,-,N/A,,Unknown,280,2012-11-11 05:50:00
6:20 AM,33.8,33.8,100,29.77,3.1,Variable,3.5,-,N/A,,Mist,0,2012-11-11 06:20:00
6:50 AM,33.8,32.0,93,29.77,3.7,SSW,4.6,-,N/A,,Partly Cloudy,210,2012-11-11 06:50:00
7:20 AM,35.6,33.8,93,29.80,3.1,Calm,Calm,-,N/A,Fog,Fog,0,2012-11-11 07:20:00
7:50 AM,35.6,35.6,100,29.83,4.3,Calm,Calm,-,N/A,Fog,Fog,0,2012-11-11 07:50:00
8:20 AM,37.4,35.6,93,29.83,4.3,Variable,3.5,-,N/A,Fog,Fog,0,2012-11-11 08:20:00
8:50 AM,38,37,94,29.84,6,WNW,2.3,,,,,290,2012-11-11 08:50:00
8:50 AM,39.2,37.4,93,29.83,5.0,Variable,2.3,-,N/A,Fog,Fog,0,2012-11-11 08:50:00
9:20 AM,39.2,37.4,93,29.86,5.6,West,5.8,-,N/A,Fog,Unknown,270,2012-11-11 09:20:00
9:50 AM,42.8,39.2,87,29.86,-9999.0,West,4.6,-,N/A,,Clear,270,2012-11-11 09:50:00
10:20 AM,42.8,39.2,87,29.86,-9999.0,West,4.6,-,N/A,,Clear,260,2012-11-11 10:20:00
10:50 AM,46.4,41.0,81,29.89,-9999.0,WNW,4.6,-,N/A,,Clear,300,2012-11-11 10:50:00
11:20 AM,46.4,41.0,81,29.89,-9999.0,West,6.9,-,N/A,,Clear,280,2012-11-11 11:20:00
11:50 AM,47,40,70,29.91,14,WNW,6.9,,,,,290,2012-11-11 11:50:00
11:50 AM,48.2,41.0,76,29.89,-9999.0,WNW,6.9,-,N/A,,Clear,290,2012-11-11 11:50:00
12:20 PM,48.2,41.0,76,29.92,-9999.0,WNW,6.9,-,N/A,,Clear,290,2012-11-11 12:20:00
12:50 PM,50.0,41.0,71,29.92,6.2,West,8.1,-,N/A,,Partly Cloudy,270,2012-11-11 12:50:00
1:20 PM,50.0,41.0,71,29.92,6.2,West,8.1,-,N/A,,Partly Cloudy,270,2012-11-11 13:20:00
1:50 PM,50.0,39.2,66,29.92,6.2,West,8.1,-,N/A,,Partly Cloudy,270,2012-11-11 13:50:00
2:20 PM,50.0,39.2,66,29.95,6.2,West,8.1,-,N/A,,Partly Cloudy,260,2012-11-11 14:20:00
2:50 PM,51,37,47,29.97,19,West,6.9,,,,,260,2012-11-11 14:50:00
2:50 PM,50.0,37.4,62,29.98,6.2,West,6.9,-,N/A,,Partly Cloudy,280,2012-11-11 14:50:00
3:20 PM,48.2,39.2,71,29.98,6.2,West,9.2,-,N/A,,Partly Cloudy,280,2012-11-11 15:20:00
3:50 PM,48.2,37.4,66,29.98,6.2,West,10.4,-,N/A,,Partly Cloudy,270,2012-11-11 15:50:00
4:20 PM,46.4,37.4,71,30.01,-9999.0,West,8.1,-,N/A,,Clear,280,2012-11-11 16:20:00
4:50 PM,46.4,37.4,71,30.01,-9999.0,WNW,5.8,-,N/A,,Clear,290,2012-11-11 16:50:00
5:20 PM,46.4,37.4,71,30.01,-9999.0,WNW,5.8,-,N/A,,Clear,290,2012-11-11 17:20:00
5:50 PM,46,38,65,30.04,16,SW,5.8,,,,,230,2012-11-11 17:50:00
5:50 PM,44.6,37.4,76,30.04,-9999.0,WSW,6.9,-,N/A,,Clear,240,2012-11-11 17:50:00
6:20 PM,44.6,37.4,76,30.04,-9999.0,West,6.9,-,N/A,,Clear,260,2012-11-11 18:20:00
6:50 PM,42.8,37.4,81,30.06,-9999.0,West,9.2,-,N/A,,Clear,260,2012-11-11 18:50:00
7:20 PM,42.8,37.4,81,30.04,-9999.0,SW,6.9,-,N/A,,Clear,220,2012-11-11 19:20:00
7:50 PM,42.8,37.4,81,30.06,-9999.0,SW,5.8,-,N/A,,Clear,220,2012-11-11 19:50:00
8:20 PM,41.0,37.4,87,30.06,-9999.0,WSW,5.8,-,N/A,,Clear,240,2012-11-11 20:20:00
8:50 PM,44,38,74,30.09,12,WSW,5.8,,,,Mostly Cloudy,250,2012-11-11 20:50:00
8:50 PM,41.0,37.4,87,30.09,-9999.0,WSW,5.8,-,N/A,,Clear,240,2012-11-11 20:50:00
9:20 PM,41.0,37.4,87,30.09,-9999.0,WSW,4.6,-,N/A,,Clear,240,2012-11-11 21:20:00
9:50 PM,41.0,37.4,87,30.09,-9999.0,SSW,5.8,-,N/A,,Clear,210,2012-11-11 21:50:00
10:20 PM,41.0,37.4,87,30.09,-9999.0,SW,6.9,-,N/A,,Clear,220,2012-11-11 22:20:00
10:50 PM,41.0,37.4,87,30.09,-9999.0,SW,6.9,-,N/A,,Clear,220,2012-11-11 22:50:00
11:20 PM,39.2,37.4,93,30.12,-9999.0,SSW,4.6,-,N/A,,Clear,200,2012-11-11 23:20:00
11:50 PM,40,37,84,30.12,9,SSW,4.6,,,,Mostly Cloudy,210,2012-11-11 23:50:00
11:50 PM,39.2,37.4,93,30.12,-9999.0,SSW,4.6,-,N/A,,Clear,200,2012-11-11 23:50:00